Flag for U.S.A. Weather past 2 weeks in Stockton, California, U.S.A.

Now
78 °F

Sunny.


Feels Like: 79 °F
Forecast: 54 / 82 °F
Wind: 7 mph from Northwest

Location: Stockton Metropolitan Airport

Current Time: Mar 27, 2015 at 1:08:05 PM

Latest Report: Mar 27, 2015 at 11:55 AM


Visibility: 10 mi

Pressure: 30.11 "Hg

Humidity: 43%

Dew point: 54 °F

Location of StocktonLocation

Historic Weather in Stockton — Graph

°F

Stockton temperature yesterday

Maximum temperature yesterday: 85 °F (at 4:55 PM)
Minimum temperature yesterday: 50 °F (at 6:55 AM)
Average temperature yesterday: 67 °F

Past Weeks' High & Low Weather Summary

 TemperatureHumidityPressure
High85 °F (Mar 26, 4:55 PM)97% (Mar 23, 7:55 AM)30.28 "Hg (Mar 23, 7:55 AM)
Low47 °F (Mar 18, 6:55 AM)22% (Mar 19, 4:55 PM)29.95 "Hg (Mar 14, 5:55 PM)
Average64 °F59%30.09 "Hg
* Reported Mar 12 11:55 AM — Mar 27 11:55 AM, Stockton, Weather by CustomWeather, © 2015

Note: Actual official high and low records may vary slightly from our data, if they occured in-between our weather recording intervals... More about our weather records

Advertising

Stockton weather history for previous 24 hours

 ConditionsComfort  
Time TempWeatherWind HumidityBarometerVisibility
11:55 AM
Fri, Mar 27
78 °FSunny.7 mph43%30.11 "Hg10 mi
10:55 AM74 °FSunny.7 mph50%30.12 "Hg10 mi
9:55 AM70 °FSunny.6 mph55%30.11 "Hg10 mi
8:55 AM63 °FSunny.3 mph73%30.11 "Hg8 mi
7:55 AM55 °FClear.No wind87%30.09 "Hg9 mi
6:55 AM52 °FClear.No wind93%30.07 "Hg10 mi
5:55 AM52 °FClear.No wind86%30.06 "Hg7 mi
4:55 AM54 °FClear.No wind86%30.06 "Hg10 mi
3:55 AM56 °FClear.3 mph84%30.06 "Hg10 mi
2:55 AM58 °FClear.No wind75%30.07 "Hg10 mi
1:55 AM60 °FClear.5 mph72%30.08 "Hg10 mi
12:55 AM59 °FClear.3 mph72%30.08 "Hg10 mi
11:55 PM
Thu, Mar 26
62 °FClear.5 mph73%30.08 "Hg10 mi
10:55 PM63 °FClear.3 mph65%30.08 "Hg10 mi
9:55 PM70 °FClear.No wind55%30.07 "Hg10 mi
8:55 PM71 °FClear.5 mph47%30.06 "Hg10 mi
7:55 PM75 °FSunny.5 mph40%30.04 "Hg10 mi
6:55 PM81 °FSunny.6 mph30%30.03 "Hg10 mi
5:55 PM85 °FSunny.No wind25%30.03 "Hg10 mi
4:55 PM85 °FSunny.No wind26%30.05 "Hg10 mi
3:55 PM83 °FSunny.6 mph30%30.06 "Hg10 mi
2:55 PM81 °FSunny.3 mph34%30.08 "Hg10 mi
1:55 PM80 °FSunny.5 mph34%30.11 "Hg10 mi
Weather by CustomWeather, © 2015

See weather overviewHow to use our weather pages